Home > Weather > Rainy River > Past weeks

Flag for Canada Weather for the Past 2 Weeks in Rainy River, Ontario, Canada

Now
11 °F

Light snow. Mostly cloudy.


Feels Like: -6 °F
Forecast: -2 / 15 °F
Wind: 16 mph from South

Location: Baudette International Airport

Current Time: Feb 14, 2016 at 12:03:51 PM

Latest Report: Feb 14, 2016 at 10:53 AM


Visibility: 1 mi

Pressure: 29.93 "Hg

Humidity: 73%

Dew point: 4 °F

Location of Rainy RiverLocation

Historic Weather in Rainy River — Graph

°F

Rainy River Temperature Yesterday

Maximum temperature yesterday: 7 °F (at 3:53 PM)
Minimum temperature yesterday: -28 °F (at 7:53 AM)
Average temperature yesterday: -8 °F

High & Low Weather Summary for the Past Weeks

 TemperatureHumidityPressure
High36 °F (Jan 30, 12:53 PM)96% (Jan 31, 9:53 AM)30.70 "Hg (Jan 31, 9:53 AM)
Low-28 °F (Feb 13, 7:53 AM)37% (Feb 13, 3:53 PM)29.34 "Hg (Jan 30, 10:53 AM)
Average9 °F71%30.08 "Hg
* Reported Jan 30 10:53 AM — Feb 14 10:53 AM, Rainy River, Weather by CustomWeather, © 2016

Note: Actual official high and low records may vary slightly from our data, if they occured in-between our weather recording intervals... More about our weather records

Advertising

Rainy River Weather History for the Previous 24 Hours

 ConditionsComfort  
Time TempWeatherWind HumidityBarometerVisibility
10:53 AM
Sun, Feb 14
11 °FLight snow. Mostly cloudy.16 mph73%29.93 "Hg1 mi
10:02 AM11 °FLight snow. Mostly cloudy.12 mph70%29.86 "Hg3 mi
9:53 AM10 °FLight snow. Mostly cloudy.13 mph69%29.95 "Hg2 mi
8:53 AM9 °FMostly cloudy.13 mph55%29.97 "Hg10 mi
7:53 AM7 °FMostly cloudy.12 mph55%29.99 "Hg10 mi
6:53 AM7 °FOvercast.13 mph55%30.01 "Hg10 mi
5:53 AM5 °FOvercast.12 mph57%30.04 "Hg10 mi
4:53 AM5 °FOvercast.12 mph54%30.06 "Hg10 mi
3:53 AM5 °FOvercast.13 mphN/A30.09 "Hg10 mi
2:53 AM4 °FOvercast.13 mphN/A30.13 "Hg10 mi
1:53 AM2 °FOvercast.12 mph54%30.18 "Hg10 mi
12:53 AM-2 °FPassing clouds.12 mph53%30.21 "Hg10 mi
11:53 PM
Sat, Feb 13
-1 °FClear.14 mph48%30.23 "Hg10 mi
10:53 PM0 °FClear.13 mph46%30.25 "Hg10 mi
9:53 PM0 °FClear.10 mph46%30.30 "Hg10 mi
8:53 PM0 °FClear.9 mph46%30.31 "Hg10 mi
7:53 PM1 °FClear.10 mph46%30.35 "Hg10 mi
6:53 PM2 °FClear.9 mph46%30.37 "Hg10 mi
5:53 PM3 °FClear.6 mph47%30.38 "Hg10 mi
4:53 PM7 °FSunny.10 mph43%30.40 "Hg10 mi
3:53 PM7 °FSunny.7 mph37%30.43 "Hg10 mi
2:53 PM6 °FSunny.8 mph40%30.47 "Hg10 mi
1:53 PM4 °FSunny.8 mph42%30.50 "Hg10 mi
12:53 PM1 °FSunny.3 mph46%30.55 "Hg10 mi
Weather by CustomWeather, © 2016

See weather overviewHow to use our weather pages